Wind_Speed
43 44 45 46 47 48 50 51 52 52 51 49 49 49 50 51 51 51 50 50 50 49 49 50 50 49 48 48 47 45 44 43 42 41 40 39 38 36
44 45 45 47 48 49 50 51 52 52 50 48 48 49 50 50 50 50 50 49 49 49 49 50 49 48 47 47 45 44 43 42 41 40 39 37 35 33
45 46 46 47 48 49 50 51 51 51 49 48 48 48 49 49 49 49 49 49 49 49 49 49 48 46 45 45 44 42 41 41 40 39 37 35 33 31
45 46 47 48 49 49 49 50 51 50 49 48 47 48 48 48 48 48 49 49 49 49 48 47 45 44 43 42 41 40 39 38 37 36 34 33 31 29
46 47 48 48 48 49 50 50 50 49 48 47 47 47 48 48 48 48 48 48 47 47 46 44 42 41 40 39 38 37 36 34 33 32 31 30 28 27
47 48 48 48 48 49 49 49 48 47 47 47 47 47 47 47 47 46 46 45 44 44 42 41 40 39 37 36 35 34 32 31 31 30 29 28 27 26
47 48 48 48 48 48 48 48 46 46 46 46 46 47 46 46 46 45 44 43 42 42 40 40 38 36 35 34 32 31 31 30 30 29 28 26 25 24
47 47 47 47 47 47 46 46 45 45 45 45 45 45 45 45 45 44 43 42 41 40 38 37 36 34 32 31 31 30 30 30 29 28 26 24 23 22
46 45 45 46 47 46 44 44 44 44 44 44 44 45 45 45 45 44 42 41 39 36 34 33 33 31 30 29 29 29 29 28 27 25 23 22 21 21
44 44 44 45 45 44 43 43 43 43 43 44 44 44 44 44 43 42 39 37 35 33 32 31 31 29 28 28 27 27 26 26 25 24 21 20 19 19
44 44 45 45 44 44 43 42 43 43 43 43 42 42 42 41 40 38 36 33 30 30 30 29 28 27 26 26 26 26 26 25 24 22 19 18 18 18
43 44 45 45 44 43 41 41 41 41 41 42 40 40 39 38 36 34 32 30 28 27 27 27 26 26 24 24 25 25 24 23 21 19 17 16 16 16
43 44 45 44 42 41 41 40 40 40 39 38 38 37 36 34 32 31 30 29 27 26 26 26 26 25 24 23 25 25 23 20 17 16 15 14 13 13
43 44 43 42 40 40 39 39 38 37 37 36 35 34 33 31 30 30 29 28 26 25 25 25 25 24 24 23 23 23 20 17 14 13 12 11 11 10
43 42 41 40 39 38 37 37 37 36 35 34 33 32 31 30 29 29 28 27 26 25 25 25 24 23 23 23 22 19 16 14 12 11 10 9 9 9
41 40 39 38 37 36 36 35 35 34 33 32 31 30 29 29 28 27 26 25 25 25 24 24 23 22 21 21 21 17 14 11 10 8 8 7 7 7
39 38 37 36 34 34 34 33 32 31 30 29 28 28 27 26 26 25 24 23 23 23 22 21 21 21 21 20 18 15 12 10 8 7 6 6 5 5
36 35 34 33 32 30 30 29 28 27 26 26 26 26 25 23 23 23 23 22 22 21 21 20 20 19 19 17 14 11 9 8 6 6 5 5 5 5
32 32 30 28 28 28 27 26 25 25 25 25 25 24 23 22 23 23 22 22 21 20 20 19 18 17 15 13 10 10 8 6 5 5 4 5 5 5
29 28 27 26 26 26 25 24 23 23 23 23 23 22 22 22 22 21 20 19 18 17 16 16 15 13 12 10 9 9 8 5 4 4 4 4 5 5
28 27 26 25 25 25 23 22 22 22 22 21 21 21 21 21 20 18 18 17 16 15 14 13 12 11 10 8 8 7 6 4 4 3 4 4 5 5
26 26 25 24 24 23 22 21 21 21 21 20 20 19 19 18 17 16 16 15 14 13 12 10 9 9 8 7 6 6 5 4 4 5 5 6 5 5
26 25 24 23 23 22 21 21 21 20 19 18 18 18 17 16 16 14 14 13 12 10 9 8 7 7 6 5 5 5 5 4 5 5 5 5 5 5
Wind_Direction
293 295 296 297 298 299 301 302 303 303 304 304 303 303 304 304 304 304 305 305 305 304 304 304 304 303 303 303 303 302 303 302 300 300 299 297 295 291
293 295 296 297 298 300 302 303 304 304 305 305 305 305 305 305 305 306 306 306 306 306 306 305 304 303 303 304 303 301 302 302 300 299 298 297 296 291
292 294 296 298 299 301 302 303 304 305 305 305 306 306 306 307 307 308 308 307 307 307 307 306 305 304 304 304 304 303 302 302 300 299 298 296 295 291
292 295 297 298 299 301 302 303 304 304 305 306 306 306 307 308 308 309 309 308 308 307 307 307 306 306 305 305 305 304 303 304 302 300 299 298 296 293
293 295 297 298 299 300 302 303 304 304 305 306 307 307 308 308 309 309 309 309 309 309 308 308 308 308 307 307 307 306 305 305 305 302 300 299 296 292
293 296 297 297 298 300 302 303 303 304 304 306 307 308 308 308 309 310 310 310 310 310 309 309 309 309 308 307 308 307 306 306 306 304 303 300 297 294
294 296 297 297 298 300 301 302 303 303 304 306 307 308 308 309 310 310 311 311 311 310 309 309 309 309 308 308 308 307 307 306 305 305 303 301 299 296
293 295 296 297 298 300 301 302 303 304 304 306 307 308 309 310 311 311 311 310 310 309 310 310 310 310 309 308 308 308 308 307 306 304 303 301 301 299
292 294 295 297 299 300 300 301 303 304 305 306 307 308 309 309 310 310 311 311 311 311 311 311 312 312 312 310 310 310 311 310 309 307 303 301 301 301
290 292 295 297 299 299 298 299 302 303 304 306 308 309 310 311 311 312 312 313 313 313 313 313 313 313 313 312 312 311 312 313 312 309 304 300 298 300
290 292 294 296 297 297 297 299 301 303 304 306 307 309 311 313 313 313 313 314 315 315 315 314 314 314 314 316 316 315 314 314 312 309 304 299 298 297
289 291 294 295 296 296 296 298 300 302 304 305 307 309 311 313 314 314 313 313 314 315 316 317 317 318 317 316 316 317 316 315 313 310 308 305 302 301
288 291 293 294 293 294 296 298 299 301 303 305 306 309 311 313 314 315 316 315 315 316 317 318 319 319 319 318 318 319 318 316 314 313 312 308 308 307
288 289 291 292 291 292 295 297 299 301 303 305 307 309 310 312 313 314 315 315 316 318 319 320 321 321 322 321 322 322 321 321 322 324 324 321 320 322
286 288 290 290 289 290 292 294 297 300 303 305 306 308 310 312 313 314 314 314 316 318 320 322 321 322 324 325 327 326 324 324 326 328 328 327 328 328
285 286 288 288 288 289 292 294 297 299 301 303 305 307 309 312 314 314 314 314 317 317 318 320 322 324 324 326 328 329 326 326 327 328 330 332 334 334
285 286 286 286 286 288 291 294 296 297 300 302 304 306 308 311 313 314 314 315 317 318 319 320 322 324 326 327 329 329 328 328 331 338 343 343 344 349
285 286 287 287 286 286 290 292 294 298 300 301 303 306 307 309 311 312 313 314 316 317 318 320 322 324 325 328 331 335 335 335 345 357 2 9 22 29
286 286 285 285 285 287 288 290 293 295 297 300 303 305 306 308 311 312 312 314 316 318 319 321 322 324 327 331 337 343 345 347 358 15 30 40 50 51
285 286 283 282 283 286 287 289 291 293 297 300 302 304 306 308 311 312 313 316 318 320 323 326 327 329 334 339 346 353 359 9 24 44 61 68 66 62
283 284 282 281 283 284 285 287 290 293 296 299 301 304 306 309 312 312 313 316 318 321 326 330 333 337 342 344 351 2 13 27 50 66 70 71 68 62
282 283 281 280 281 282 281 283 288 292 295 297 300 304 306 309 312 313 314 315 319 322 326 330 333 339 342 349 3 18 32 47 61 62 63 62 62 69
280 280 278 277 278 280 280 283 286 289 292 295 299 302 305 309 311 312 313 317 321 324 328 332 334 338 345 355 13 34 48 58 61 64 61 57 63 68
Height
5731 5727 5723 5718 5714 5708 5703 5697 5692 5687 5683 5676 5669 5661 5654 5647 5641 5634 5628 5622 5616 5609 5604 5598 5592 5586 5580 5574 5568 5563 5557 5552 5547 5543 5539 5534 5531 5528
5721 5717 5713 5709 5704 5698 5692 5686 5680 5674 5670 5664 5657 5650 5643 5636 5629 5622 5616 5610 5604 5597 5591 5585 5579 5573 5567 5562 5556 5551 5546 5541 5536 5532 5528 5524 5520 5517
5711 5707 5703 5698 5693 5688 5682 5676 5669 5663 5658 5653 5645 5639 5632 5625 5618 5611 5605 5598 5592 5586 5579 5573 5566 5561 5555 5549 5544 5539 5534 5529 5525 5521 5517 5514 5511 5508
5701 5697 5693 5688 5683 5677 5672 5666 5659 5653 5647 5642 5636 5629 5622 5615 5608 5601 5594 5587 5581 5575 5568 5561 5555 5549 5544 5538 5533 5528 5524 5519 5515 5511 5508 5505 5502 5500
5691 5687 5682 5678 5673 5667 5661 5655 5649 5643 5637 5631 5625 5619 5612 5604 5598 5591 5584 5577 5570 5563 5557 5551 5545 5539 5534 5529 5523 5519 5514 5510 5507 5503 5499 5496 5494 5492
5680 5676 5672 5667 5662 5657 5651 5645 5639 5633 5627 5621 5615 5609 5602 5595 5588 5581 5575 5568 5561 5554 5547 5542 5536 5531 5525 5520 5515 5511 5506 5503 5499 5496 5492 5489 5487 5485
5669 5665 5661 5656 5651 5646 5640 5635 5629 5623 5618 5612 5605 5599 5592 5586 5579 5572 5565 5559 5552 5545 5540 5534 5528 5523 5518 5512 5507 5503 5499 5496 5492 5489 5486 5482 5480 5478
5659 5655 5650 5645 5641 5635 5630 5624 5619 5613 5608 5602 5596 5589 5583 5576 5569 5562 5556 5550 5545 5539 5532 5526 5520 5515 5510 5505 5501 5497 5493 5489 5486 5483 5479 5477 5474 5472
5648 5644 5639 5635 5630 5626 5620 5615 5610 5603 5598 5593 5587 5580 5574 5568 5561 5554 5547 5540 5535 5529 5523 5518 5513 5508 5503 5499 5495 5491 5487 5483 5480 5477 5474 5471 5469 5467
5637 5633 5629 5625 5620 5616 5611 5606 5601 5595 5590 5584 5578 5571 5564 5558 5551 5545 5539 5533 5527 5521 5516 5512 5507 5502 5497 5493 5489 5485 5481 5478 5474 5471 5468 5467 5464 5462
5626 5623 5619 5615 5610 5606 5602 5597 5592 5586 5580 5574 5569 5563 5556 5549 5543 5537 5532 5527 5522 5517 5510 5506 5502 5497 5493 5488 5484 5480 5477 5473 5470 5467 5464 5462 5460 5458
5616 5612 5609 5604 5600 5596 5592 5588 5583 5578 5572 5567 5561 5555 5549 5543 5536 5531 5526 5521 5516 5512 5506 5501 5497 5492 5490 5485 5480 5476 5472 5469 5466 5463 5460 5458 5456 5454
5605 5602 5598 5594 5590 5586 5582 5578 5574 5569 5564 5559 5554 5548 5542 5537 5531 5526 5520 5516 5511 5507 5502 5498 5493 5489 5485 5482 5477 5472 5468 5465 5462 5460 5457 5455 5453 5451
5594 5591 5588 5584 5581 5577 5573 5569 5565 5561 5556 5552 5547 5542 5536 5531 5526 5521 5516 5512 5507 5503 5498 5494 5490 5485 5481 5477 5474 5469 5465 5462 5459 5457 5455 5453 5451 5449
5583 5581 5577 5574 5571 5568 5564 5561 5557 5553 5549 5544 5540 5535 5530 5526 5521 5517 5512 5507 5503 5499 5494 5490 5486 5482 5478 5473 5469 5466 5462 5460 5457 5455 5454 5452 5450 5448
5573 5570 5567 5564 5561 5559 5556 5553 5549 5545 5542 5538 5533 5529 5525 5520 5516 5512 5508 5504 5499 5495 5491 5487 5483 5479 5475 5470 5466 5463 5460 5458 5456 5454 5452 5451 5449 5448
5562 5560 5557 5555 5552 5550 5547 5544 5542 5538 5535 5531 5527 5524 5520 5516 5512 5508 5504 5500 5496 5492 5488 5484 5479 5475 5471 5468 5464 5461 5458 5456 5454 5453 5452 5451 5449 5448
5553 5551 5548 5546 5544 5542 5540 5537 5535 5532 5529 5525 5522 5518 5515 5511 5508 5504 5500 5496 5492 5489 5485 5481 5477 5473 5470 5466 5462 5460 5457 5455 5454 5453 5451 5451 5450 5449
5544 5542 5540 5538 5537 5535 5533 5531 5528 5526 5523 5520 5517 5513 5510 5507 5503 5500 5496 5493 5489 5485 5481 5478 5474 5471 5468 5465 5462 5459 5457 5455 5454 5453 5452 5452 5451 5450
5536 5534 5533 5531 5530 5528 5527 5525 5523 5520 5518 5515 5512 5509 5506 5503 5499 5496 5492 5489 5486 5483 5479 5475 5472 5469 5466 5464 5462 5460 5457 5456 5455 5454 5454 5453 5452 5452
5528 5527 5525 5524 5523 5522 5520 5519 5517 5515 5513 5510 5507 5504 5502 5499 5495 5492 5489 5486 5483 5480 5477 5474 5471 5468 5466 5464 5462 5460 5458 5457 5456 5455 5455 5454 5454 5454
5521 5519 5518 5517 5516 5515 5514 5513 5512 5510 5508 5506 5503 5500 5498 5495 5492 5489 5486 5484 5481 5478 5476 5473 5470 5468 5466 5464 5463 5461 5460 5459 5458 5457 5456 5456 5456 5456
5514 5512 5511 5511 5510 5509 5509 5508 5507 5505 5503 5501 5499 5496 5494 5491 5488 5486 5484 5481 5479 5477 5474 5472 5470 5468 5466 5465 5464 5463 5462 5461 5460 5460 5459 5458 5458 5457